• In United Kingdom
  • List of Countries
  • For 7 days
  • Water Temperature
  • Satellite Maps
  • Weather Map
  • Weather Widgets
  • user-avatar
    Login

    Hourly Weather Shkoder

    Today, 20 August, Sunday

    Time Temperature Precipitation Wind Pressure Humidity
    00:00 +25°C° 0 mm 1 mps 739 mmHg 55%
    01:00 +25°C° 0 mm 1 mps 739 mmHg 57%
    02:00 +24°C° 0 mm 2 mps 738 mmHg 57%
    03:00 +24°C° 0 mm 2 mps 738 mmHg 57%
    04:00 +24°C° 0 mm 2 mps 738 mmHg 57%
    05:00 +25°C° 0 mm 2 mps 738 mmHg 53%
    06:00 +27°C° 0 mm 1 mps 739 mmHg 49%
    07:00 +28°C° 0 mm 1 mps 739 mmHg 45%
    08:00 +30°C° 0 mm 1 mps 739 mmHg 40%
    09:00 +32°C° 0 mm 2 mps 738 mmHg 35%
    10:00 +34°C° 0 mm 2 mps 738 mmHg 30%
    11:00 +35°C° 0 mm 2 mps 738 mmHg 29%
    12:00 +35°C° 0 mm 3 mps 738 mmHg 29%
    13:00 +36°C° 0 mm 3 mps 738 mmHg 28%
    14:00 +35°C° 0 mm 3 mps 737 mmHg 30%
    15:00 +35°C° 0 mm 3 mps 737 mmHg 32%
    16:00 +34°C° 0 mm 2 mps 737 mmHg 35%
    17:00 +31°C° 0.1 mm 2 mps 737 mmHg 42%
    18:00 +28°C° 0.1 mm 1 mps 737 mmHg 50%
    19:00 +26°C° 0.1 mm 1 mps 738 mmHg 57%
    20:00 +25°C° 0.5 mm 1 mps 738 mmHg 62%
    21:00 +24°C° 0.5 mm 1 mps 738 mmHg 67%
    22:00 +23°C° 0.5 mm 2 mps 739 mmHg 73%
    23:00 +23°C° 0.7 mm 2 mps 739 mmHg 77%

    Tomorrow, 21 August, Monday

    Time Temperature Precipitation Wind Pressure Humidity
    00:00 +21°C° 0.7 mm 3 mps 739 mmHg 82%
    01:00 +21°C° 0.7 mm 3 mps 739 mmHg 86%
    02:00 +20°C° 0.2 mm 3 mps 738 mmHg 87%
    03:00 +20°C° 0.2 mm 3 mps 738 mmHg 88%
    04:00 +20°C° 0.2 mm 3 mps 738 mmHg 88%
    05:00 +21°C° 0 mm 3 mps 738 mmHg 84%
    06:00 +21°C° 0 mm 3 mps 739 mmHg 80%
    07:00 +22°C° 0 mm 4 mps 739 mmHg 76%
    08:00 +25°C° 0 mm 4 mps 739 mmHg 68%
    09:00 +26°C° 0 mm 4 mps 739 mmHg 59%
    10:00 +28°C° 0 mm 4 mps 739 mmHg 50%
    11:00 +28°C° 0 mm 4 mps 739 mmHg 47%
    12:00 +29°C° 0 mm 4 mps 739 mmHg 44%
    13:00 +30°C° 0 mm 4 mps 739 mmHg 41%
    14:00 +29°C° 0 mm 4 mps 738 mmHg 42%
    15:00 +29°C° 0 mm 4 mps 738 mmHg 43%
    16:00 +28°C° 0 mm 5 mps 738 mmHg 43%
    17:00 +26°C° 0 mm 4 mps 738 mmHg 49%
    18:00 +23°C° 0 mm 4 mps 739 mmHg 55%
    19:00 +21°C° 0 mm 4 mps 739 mmHg 60%
    20:00 +20°C° 0 mm 4 mps 739 mmHg 62%
    21:00 +20°C° 0 mm 4 mps 739 mmHg 64%
    22:00 +19°C° 0 mm 4 mps 740 mmHg 67%
    23:00 +18°C° 0 mm 4 mps 740 mmHg 66%

    Day after tomorrow, 22 August, Tuesday

    Time Temperature Precipitation Wind Pressure Humidity
    00:00 +18°C° 0 mm 4 mps 740 mmHg 65%
    01:00 +17°C° 0 mm 4 mps 740 mmHg 64%
    02:00 +17°C° 0 mm 4 mps 740 mmHg 64%
    03:00 +17°C° 0 mm 4 mps 740 mmHg 63%
    04:00 +15°C° 0 mm 4 mps 740 mmHg 63%
    05:00 +18°C° 0 mm 4 mps 740 mmHg 58%
    06:00 +19°C° 0 mm 4 mps 741 mmHg 53%
    07:00 +20°C° 0 mm 4 mps 741 mmHg 48%
    08:00 +22°C° 0 mm 4 mps 741 mmHg 43%
    09:00 +25°C° 0 mm 4 mps 741 mmHg 37%
    10:00 +27°C° 0 mm 4 mps 741 mmHg 31%
    11:00 +28°C° 0 mm 4 mps 740 mmHg 29%
    12:00 +29°C° 0 mm 4 mps 740 mmHg 27%
    13:00 +30°C° 0 mm 3 mps 740 mmHg 25%
    14:00 +30°C° 0 mm 4 mps 740 mmHg 26%
    15:00 +30°C° 0 mm 4 mps 740 mmHg 27%
    16:00 +30°C° 0 mm 4 mps 739 mmHg 27%
    17:00 +27°C° 0 mm 4 mps 739 mmHg 34%
    18:00 +25°C° 0 mm 4 mps 740 mmHg 40%
    19:00 +21°C° 0 mm 3 mps 740 mmHg 47%
    20:00 +20°C° 0 mm 3 mps 740 mmHg 49%
    21:00 +19°C° 0 mm 3 mps 740 mmHg 52%
    22:00 +19°C° 0 mm 3 mps 741 mmHg 54%
    23:00 +18°C° 0 mm 3 mps 741 mmHg 56%

    23 August, Wednesday

    Time Temperature Precipitation Wind Pressure Humidity
    00:00 +18°C° 0 mm 3 mps 741 mmHg 58%
    01:00 +17°C° 0 mm 3 mps 741 mmHg 60%
    02:00 +17°C° 0 mm 3 mps 741 mmHg 60%
    03:00 +17°C° 0 mm 3 mps 741 mmHg 60%
    04:00 +17°C° 0 mm 3 mps 741 mmHg 59%
    05:00 +18°C° 0 mm 3 mps 741 mmHg 55%
    06:00 +20°C° 0 mm 3 mps 741 mmHg 50%
    07:00 +22°C° 0 mm 3 mps 741 mmHg 45%
    08:00 +25°C° 0 mm 2 mps 741 mmHg 39%
    09:00 +27°C° 0 mm 2 mps 742 mmHg 33%
    10:00 +30°C° 0 mm 1 mps 742 mmHg 26%
    11:00 +30°C° 0 mm 2 mps 741 mmHg 25%
    12:00 +31°C° 0 mm 2 mps 741 mmHg 23%
    13:00 +33°C° 0 mm 3 mps 741 mmHg 22%
    14:00 +33°C° 0 mm 3 mps 741 mmHg 23%
    15:00 +31°C° 0 mm 3 mps 741 mmHg 25%
    16:00 +31°C° 0 mm 3 mps 741 mmHg 26%
    17:00 +28°C° 0 mm 2 mps 741 mmHg 33%
    18:00 +25°C° 0 mm 2 mps 741 mmHg 41%
    19:00 +22°C° 0 mm 1 mps 741 mmHg 48%
    20:00 +22°C° 0 mm 1 mps 742 mmHg 46%
    21:00 +20°C° 0 mm 2 mps 742 mmHg 45%
    22:00 +20°C° 0 mm 2 mps 742 mmHg 44%
    23:00 +20°C° 0 mm 2 mps 742 mmHg 43%

    24 August, Thursday

    Time Temperature Precipitation Wind Pressure Humidity
    00:00 +19°C° 0 mm 2 mps 742 mmHg 43%
    01:00 +19°C° 0 mm 2 mps 742 mmHg 42%
    02:00 +19°C° 0 mm 2 mps 742 mmHg 43%
    03:00 +19°C° 0 mm 2 mps 742 mmHg 44%
    04:00 +18°C° 0 mm 2 mps 742 mmHg 45%
    05:00 +20°C° 0 mm 2 mps 742 mmHg 43%
    06:00 +23°C° 0 mm 2 mps 743 mmHg 41%
    07:00 +24°C° 0 mm 2 mps 743 mmHg 39%
    08:00 +27°C° 0 mm 2 mps 743 mmHg 34%
    09:00 +29°C° 0 mm 2 mps 743 mmHg 29%
    10:00 +32°C° 0 mm 1 mps 743 mmHg 24%
    11:00 +34°C° 0 mm 2 mps 743 mmHg 23%
    12:00 +34°C° 0 mm 2 mps 743 mmHg 21%
    13:00 +35°C° 0 mm 3 mps 742 mmHg 20%
    14:00 +35°C° 0 mm 3 mps 742 mmHg 21%
    15:00 +35°C° 0 mm 3 mps 742 mmHg 23%
    16:00 +34°C° 0 mm 3 mps 742 mmHg 24%
    17:00 +31°C° 0 mm 3 mps 742 mmHg 29%
    18:00 +28°C° 0 mm 2 mps 742 mmHg 34%
    19:00 +25°C° 0 mm 2 mps 742 mmHg 40%
    20:00 +24°C° 0 mm 2 mps 742 mmHg 39%
    21:00 +24°C° 0 mm 2 mps 743 mmHg 39%
    22:00 +23°C° 0 mm 2 mps 743 mmHg 38%
    23:00 +23°C° 0 mm 2 mps 743 mmHg 39%

    25 August, Friday

    Time Temperature Precipitation Wind Pressure Humidity
    00:00 +21°C° 0 mm 2 mps 743 mmHg 39%
    01:00 +21°C° 0 mm 2 mps 743 mmHg 40%
    02:00 +21°C° 0 mm 2 mps 743 mmHg 40%
    03:00 +21°C° 0 mm 2 mps 743 mmHg 41%
    04:00 +20°C° 0 mm 2 mps 743 mmHg 41%
    05:00 +23°C° 0 mm 2 mps 743 mmHg 39%
    06:00 +25°C° 0 mm 2 mps 743 mmHg 37%
    07:00 +26°C° 0 mm 2 mps 743 mmHg 35%
    08:00 +29°C° 0 mm 2 mps 743 mmHg 31%
    09:00 +31°C° 0 mm 1 mps 743 mmHg 26%
    10:00 +34°C° 0 mm 1 mps 743 mmHg 21%
    11:00 +36°C° 0 mm 2 mps 743 mmHg 21%
    12:00 +36°C° 0 mm 2 mps 743 mmHg 20%
    13:00 +37°C° 0 mm 3 mps 742 mmHg 19%
    14:00 +37°C° 0 mm 3 mps 742 mmHg 20%
    15:00 +36°C° 0 mm 3 mps 742 mmHg 21%
    16:00 +36°C° 0 mm 3 mps 741 mmHg 22%
    17:00 +33°C° 0 mm 3 mps 742 mmHg 28%
    18:00 +29°C° 0 mm 2 mps 742 mmHg 33%
    19:00 +26°C° 0 mm 1 mps 742 mmHg 38%
    20:00 +25°C° 0 mm 1 mps 742 mmHg 37%
    21:00 +25°C° 0 mm 2 mps 742 mmHg 36%
    22:00 +25°C° 0 mm 2 mps 742 mmHg 35%
    23:00 +24°C° 0 mm 2 mps 742 mmHg 35%
    Show more